Regional Weather Roundup
Issued by NWS State College, PA

Home | Current Version | Previous Version | Graphics & Text | Print | Product List | Glossary On
Versions: 1 2 3 4 5 6 7 8 9 10 11 12 13 14 15 16 17 18 19 20 21 22 23 24 25 26 27 28 29 30 31 32 33 34 35 36 37 38 39 40 41 42 43 44 45 46 47 48 49 50
000
ASUS41 KCTP 030503
RWRCTP

REGIONAL WEATHER ROUNDUP
NATIONAL WEATHER SERVICE STATE COLLEGE PA
100 AM EDT SUN MAY 03 2015

Note: "fair" indicates few or no clouds below 12,000 feet with no
significant weather and/or obstructions to visibility.

* = STATION THAT DOES NOT REPORT PRECIPITATION /E.G. RAIN...SNOW...ETC/
    THUNDER OR FOG.

PAZ002>004-007>009-013>016-020>023-029>032-030600-
WESTERN PENNSYLVANIA

CITY           SKY/WX    TMP DP  RH WIND       PRES   REMARKS
ERIE           CLEAR     53  36  52 S3        30.03S
MEADVILLE      CLEAR     56  34  43 S5        30.05S
FRANKLIN*      CLEAR     52  32  46 S5        30.07S
NEW CASTLE     FAIR      52  40  63 CALM      30.07S
BEAVER COUNTY  NOT AVBL
BUTLER*        CLEAR     52  37  58 CALM      30.08S
PITTSBURGH INT PTCLDY    57  40  52 CALM      30.06S
PITTSBURGH     PTCLDY    61  34  36 CALM      30.05S
INDIANA*       CLOUDY    48  39  71 E3        30.10S
LATROBE        CLEAR     46  41  81 CALM      30.09R
WASHINGTON CO* CLOUDY    46  41  81 CALM      30.08S
$$

PAZ004>006-010>012-017>019-024>028-033>037-041-042-045-046-049>053-030600-
CENTRAL PENNSYLVANIA

CITY           SKY/WX    TMP DP  RH WIND       PRES   REMARKS
BRADFORD       CLEAR     40  31  70 CALM      30.06S
DUBOIS         CLEAR     56  30  37 CALM      30.06S
CLEARFIELD     CLEAR     55  29  36 CALM      30.07R
JOHNSTOWN      CLEAR     54  31  41 CALM      30.08R
ALTOONA        CLEAR     53  33  46 SE3       30.07R
STATE COLLEGE  MOCLDY    59  29  31 CALM      30.06R
WILLIAMSPORT   CLEAR     52  40  63 CALM      30.03R
SELINSGROVE    MOCLDY    51  44  77 N6        30.02R
FT INDIANTOWN  PTCLDY    51  42  70 N1        30.00R
CAPITAL CITY   PTCLDY    55  43  63 CALM      29.99R
HARRISBURG     PTCLDY    55  44  66 CALM      29.98R
YORK           PTCLDY    57  42  57 NW5       29.99S
$$

PAZ038>040-043-044-047-048-054-055-060>062-067>071-030600-
EASTERN PENNSYLVANIA

CITY           SKY/WX    TMP DP  RH WIND       PRES   REMARKS
SCRANTON       PTCLDY    53  31  42 E5        30.02R
MOUNT POCONO   MOCLDY    44  33  65 CALM      30.03R
ALLENTOWN      CLOUDY    57  46  66 E6        30.02R
QUAKERTOWN*    PTCLDY    54  46  76 CALM      30.03S
READING        PTCLDY    54  42  64 CALM      30.00R
LANCASTER      CLOUDY    52  44  74 E6        30.00R
COATESVILLE    PTCLDY    50  48  93 CALM      30.03R
POTTSTOWN      PTCLDY    53  46  77 CALM      30.04R
BLUE BELL      PTCLDY    54  45  71 SW5       30.03R
DOYLESTOWN     PTCLDY    50  32  50 CALM      30.03R
WILLOW GROVE   NOT AVBL
NORTH PHILA    PTCLDY    52  38  58 S3        30.05R
PHILADELPHIA   PTCLDY    54  43  66 SW3       30.04S
$$


USA.gov is the U.S. government's official web portal to all federal, state and local government web resources and services.